Regional Weather Roundup
Issued by NWS

Home | Current Version | Previous Version | Text Only | Print | Product List | Glossary On
Versions: 1 2 3 4 5 6 7 8 9 10 11 12 13 14 15 16 17 18 19 20 21 22 23 24 25 26 27 28 29 30 31 32 33 34 35 36 37 38 39 40 41 42 43 44 45 46 47 48 49 50
000
ASUS43 KBIS 222302
RWRND

NORTH DAKOTA REGIONAL WEATHER ROUNDUP
NATIONAL WEATHER SERVICE BISMARCK ND
600 PM CDT TUE MAY 22 2018

NOTE: "FAIR" INDICATES FEW OR NO CLOUDS BELOW 12,000 FEET WITH NO
SIGNIFICANT WEATHER AND/OR OBSTRUCTIONS TO VISIBILITY.


NDZ001>003-009>011-017-230000-
NORTHWEST NORTH DAKOTA

CITY           SKY/WX    TMP DP  RH WIND       PRES   REMARKS
WILLISTON      CLOUDY    79  46  31 NE6       29.90S
MINOT          CLOUDY    83  44  25 S5        29.87S
MINOT AFB      CLOUDY    83  47  27 SE10      29.85S
$$

NDZ018>021-031>035-040>046-230000-
SOUTHWEST NORTH DAKOTA

CITY           SKY/WX    TMP DP  RH WIND       PRES   REMARKS
BISMARCK       MOSUNNY   81  62  52 SE8       29.89S
DICKINSON      MOSUNNY   82  48  30 NE10      29.88F
GARRISON         N/A     83  45  26 VRB5      29.88F
HETTINGER ARPT PTSUNNY   77  56  48 SE10      29.91S
$$

NDZ004>008-012>016-024-026-027-054-230000-
NORTHEAST NORTH DAKOTA

CITY           SKY/WX    TMP DP  RH WIND       PRES   REMARKS
GRAND FORKS    PTSUNNY   81  55  40 SE10      29.92F
GRND FRKS AFB  FAIR      81  55  40 S8        29.93F
DEVILS LAKE    FAIR      77  51  40 SE6       29.93S
$$

NDZ022-023-025-028>030-036>039-047>053-230000-
SOUTHEAST NORTH DAKOTA

CITY           SKY/WX    TMP DP  RH WIND       PRES   REMARKS
FARGO          FAIR      82  52  35 SW5       29.94S
JAMESTOWN      PTSUNNY   82  56  40 S9        29.90F
$$





USA.gov is the U.S. government's official web portal to all federal, state and local government web resources and services.